Theta_e
338 336 336 345 347 347 345 345 344 345 348 348 347 348 348 349 349 349 348 348 347 349 348 347 347 346 346 345 344 343 343 343 342 341 342 342 342 342 343 343 344 344 344 347 347 347 348 348 347 347 347 348 347 347 347 346 345 345 344 345 345 346 346 346 345 346 345 345 346 346 345 344 343 344 344 344 345 344 341 342 342 340 339 341 344
339 335 334 337 346 346 344 344 344 344 344 347 347 347 348 349 349 349 348 348 347 347 347 347 346 345 344 343 343 342 341 341 341 341 342 341 341 341 341 342 342 342 343 344 345 345 346 346 346 347 347 346 345 345 345 344 345 344 344 344 344 345 345 345 344 343 343 344 345 345 344 345 345 344 345 345 344 344 341 341 341 338 337 343 343
338 336 335 338 347 347 345 344 343 343 347 348 348 348 349 349 349 348 348 347 346 347 346 345 345 344 344 342 342 342 342 341 341 340 340 340 340 341 341 341 342 342 341 341 342 342 344 345 346 347 345 346 345 345 345 344 344 344 344 344 344 343 344 343 342 342 342 342 342 343 343 344 344 344 345 344 345 343 341 341 341 341 338 342 341
338 336 335 338 344 345 344 344 344 346 348 348 348 348 348 348 348 348 347 347 347 347 346 346 345 345 344 343 342 342 340 340 340 340 339 339 339 339 340 340 340 340 341 341 341 340 341 342 343 345 345 345 345 345 344 344 344 345 344 344 343 343 343 342 341 341 340 340 340 338 336 334 340 343 343 343 342 341 340 340 341 342 342 341 340
338 337 335 335 336 343 345 346 346 347 348 348 348 347 348 348 348 347 347 347 347 346 345 343 342 344 344 343 341 340 340 340 339 338 339 340 339 339 339 339 340 339 340 340 341 340 341 342 343 344 345 344 343 343 343 343 343 344 344 344 343 342 342 341 341 340 340 339 338 336 332 334 335 341 342 342 340 339 339 338 338 339 338 339 339
338 334 334 334 335 338 345 344 346 347 347 347 348 347 348 347 347 347 346 347 346 345 345 343 342 343 342 341 342 341 341 341 341 341 341 340 340 340 339 339 339 340 339 339 340 339 339 340 340 342 344 344 342 343 342 343 343 343 343 343 342 341 340 340 339 338 337 336 335 331 332 333 334 336 342 341 340 339 338 338 337 337 337 337 337
336 333 334 334 334 338 343 346 347 347 346 346 347 347 347 347 347 347 346 345 345 344 344 343 341 341 342 344 342 339 338 338 338 338 337 338 338 340 340 340 340 340 340 339 340 339 339 339 340 341 343 343 342 342 342 343 343 343 343 342 341 340 339 338 338 337 335 331 327 327 329 330 331 331 339 339 339 339 337 338 337 336 336 334 334
335 334 334 332 334 339 344 345 344 346 346 346 347 347 347 347 347 346 346 345 344 344 343 342 341 340 343 340 338 340 339 338 341 341 340 339 339 338 338 339 338 339 338 338 339 339 339 338 339 341 342 343 343 342 342 342 342 343 342 341 340 339 338 337 337 335 333 326 325 325 326 326 328 329 336 337 337 336 336 336 335 335 335 334 332
334 334 334 332 335 341 343 344 344 346 346 346 346 347 347 347 345 344 343 342 343 342 342 342 340 339 340 339 339 339 340 340 340 339 338 337 338 339 339 339 339 338 338 338 338 338 338 338 339 340 341 342 342 341 341 341 342 342 342 340 339 338 337 337 335 333 329 326 325 325 325 325 325 326 334 335 335 335 334 332 332 331 330 331 331
334 333 331 332 333 340 344 345 346 346 345 345 347 347 347 346 344 343 343 342 342 342 341 340 339 339 339 338 338 338 339 339 339 340 340 339 337 338 338 337 338 338 337 338 338 339 338 338 338 339 340 342 341 341 341 340 341 341 340 339 338 338 337 335 333 330 323 322 322 324 329 334 324 326 332 335 334 333 331 333 333 332 331 330 329
333 333 332 332 333 340 345 346 347 346 345 345 346 346 346 345 344 343 342 342 341 340 340 338 338 338 337 338 337 337 338 340 340 340 340 340 339 339 338 338 339 339 338 338 338 338 339 338 338 339 340 341 341 340 340 340 340 339 339 338 337 335 333 332 328 322 322 322 322 322 330 335 323 326 333 333 334 333 333 332 329 329 329 329 329
333 332 332 333 342 339 344 344 345 346 346 345 345 346 346 345 344 343 342 342 340 339 339 338 338 339 338 337 338 341 342 341 341 340 339 339 339 339 339 338 338 338 338 338 339 339 340 339 338 339 339 341 340 339 339 339 338 338 337 336 335 333 332 330 324 322 321 322 323 322 321 323 323 328 333 333 332 331 329 329 327 328 328 328 328
333 334 332 333 334 338 341 342 342 345 346 346 346 345 345 345 344 343 342 341 339 338 337 338 338 337 335 337 340 340 341 341 341 340 338 337 337 338 338 338 337 337 338 338 338 338 338 338 338 339 339 340 339 338 339 338 338 337 337 335 333 332 331 329 322 322 321 320 322 321 321 321 324 332 331 332 331 328 328 327 328 328 328 327 326
334 333 332 333 333 341 337 340 342 343 344 346 345 344 344 344 344 342 341 339 338 337 336 336 336 335 334 336 337 340 342 341 341 341 339 338 338 338 338 338 339 338 336 335 336 336 337 337 338 337 339 339 338 337 338 338 337 337 336 335 333 331 329 328 327 320 320 321 323 322 319 323 324 331 331 332 331 328 327 327 326 326 326 326 326
335 335 332 333 332 333 339 337 339 339 341 344 344 344 344 343 343 341 340 338 337 336 337 337 336 336 335 336 336 337 337 338 338 339 340 340 340 338 337 337 335 335 336 337 337 337 337 337 337 338 338 338 338 337 337 337 337 336 336 335 332 330 327 321 321 319 321 322 320 320 318 318 333 330 330 331 328 327 327 327 327 326 326 326 326
338 335 332 332 331 332 334 337 333 335 338 341 342 342 343 343 342 342 340 339 339 338 337 338 338 341 337 339 339 339 340 340 339 340 339 339 339 337 336 335 334 335 336 336 336 336 336 337 337 337 337 338 337 337 336 336 336 335 335 333 332 331 327 323 319 317 317 318 318 321 317 319 333 330 331 330 327 326 325 324 325 325 325 326 325
338 335 333 332 330 330 332 331 331 331 332 335 337 338 340 341 341 341 341 340 340 339 339 338 339 340 341 340 339 340 340 341 341 339 338 338 338 337 337 336 336 336 336 336 336 336 336 335 336 336 336 336 336 335 335 335 335 335 334 332 330 329 326 324 319 316 317 319 319 318 319 321 333 329 329 329 327 327 325 326 325 325 325 324 324
337 335 335 335 330 329 329 329 330 332 332 332 333 336 337 339 339 339 340 339 340 339 339 339 339 339 339 339 339 339 340 340 340 340 340 339 338 337 336 335 335 335 335 335 335 335 335 335 334 335 335 335 335 335 334 334 334 333 333 330 327 327 326 325 317 316 317 324 316 320 319 328 334 329 330 329 327 326 325 328 326 325 324 324 323
336 336 336 335 331 328 329 328 329 329 330 329 328 331 333 336 336 336 338 339 339 339 338 335 336 335 334 334 334 334 334 335 337 337 336 336 335 336 336 335 335 335 335 335 334 335 334 334 334 335 335 335 335 335 334 334 333 332 331 328 323 323 323 322 317 316 317 316 315 317 317 330 333 330 330 329 328 328 327 325 325 324 323 323 323
336 335 335 335 334 331 328 327 328 328 327 327 327 327 330 330 333 335 335 336 336 335 333 331 330 328 329 329 328 326 325 325 325 327 332 333 331 328 335 336 335 335 335 334 334 334 334 334 334 335 335 334 334 332 330 332 332 331 330 326 321 321 317 316 315 316 315 315 319 316 323 330 331 330 330 330 330 329 325 324 325 323 323 323 322
334 335 335 334 334 332 328 327 326 327 327 327 327 328 328 329 329 330 331 332 331 332 331 324 322 323 323 324 324 322 319 320 321 320 324 322 325 327 334 335 334 334 334 334 334 334 334 334 333 334 333 333 325 323 321 325 328 328 325 319 317 317 314 315 315 316 314 314 317 316 326 331 331 331 331 332 332 329 326 326 325 325 324 324 323
331 332 334 334 333 332 330 328 327 327 326 328 329 327 327 327 327 325 325 327 326 325 322 319 325 316 320 320 318 319 318 317 320 327 318 320 321 324 327 333 334 333 334 333 333 333 334 334 333 333 333 329 322 315 314 317 320 323 319 314 315 314 315 314 314 315 314 313 316 319 327 332 332 331 331 331 330 329 328 327 326 325 325 325 325
330 332 333 334 333 333 332 331 330 328 326 328 328 327 326 326 324 322 323 324 325 321 319 320 316 316 316 316 317 316 316 318 317 318 318 315 318 321 326 330 332 331 332 334 333 333 333 332 332 331 329 321 317 315 315 315 315 317 314 314 313 314 314 314 313 312 314 313 314 321 327 332 332 331 332 332 332 331 331 330 327 326 326 326 325
331 332 332 334 334 332 332 331 330 329 328 329 329 328 327 323 322 321 323 321 321 319 318 317 317 316 316 317 316 315 316 316 322 325 322 318 316 319 325 326 327 326 327 327 327 328 329 330 327 324 317 313 313 314 313 314 314 313 315 313 312 313 314 314 311 313 314 315 316 321 326 331 332 332 332 332 332 332 330 329 328 328 328 327 326
333 333 332 333 334 332 331 330 331 330 328 329 328 328 328 325 321 321 321 320 321 318 318 318 317 317 316 318 316 316 315 317 317 315 313 313 313 314 315 315 314 316 318 319 318 317 316 312 311 311 310 309 310 312 313 314 311 310 310 308 310 308 309 309 309 310 313 314 315 321 325 329 333 333 333 333 333 332 331 329 330 329 329 329 328
334 332 332 332 333 332 329 328 330 330 330 330 329 328 328 327 325 322 321 320 321 320 319 320 318 319 316 317 316 315 315 317 315 314 314 313 314 314 313 313 314 314 318 317 315 315 314 313 312 312 310 308 309 310 310 309 311 310 310 311 310 311 310 309 309 310 312 311 315 319 324 327 332 334 334 335 334 334 332 331 330 331 331 331 331
332 333 334 333 333 331 329 329 329 330 330 331 330 329 328 326 326 324 322 321 319 321 319 319 321 319 317 316 318 315 315 316 315 314 313 312 313 313 313 312 312 313 317 316 315 314 314 314 312 313 310 310 311 309 308 308 307 310 311 310 310 311 310 311 310 310 310 309 312 316 321 326 329 332 333 334 335 334 333 333 333 333 333 333 333
331 333 333 332 331 331 330 329 328 330 330 329 327 328 328 325 325 325 325 321 320 321 320 321 321 320 319 319 318 318 318 316 316 313 315 312 315 313 313 313 312 313 314 313 313 312 314 312 311 313 313 313 311 312 310 309 308 306 309 311 311 311 311 310 311 312 312 312 311 314 318 322 326 329 332 333 333 334 334 334 334 333 334 334 334
329 331 332 330 331 331 330 330 329 329 330 328 326 326 326 325 323 324 325 323 322 322 322 320 321 320 320 318 317 317 315 317 316 316 313 315 314 313 313 313 313 313 313 312 311 313 312 311 312 312 312 312 311 313 309 310 309 309 308 311 311 311 312 312 312 311 312 312 312 313 316 320 325 328 330 331 332 333 333 334 335 334 335 335 335
328 330 330 330 331 332 330 330 330 330 330 329 326 325 325 325 324 324 324 322 323 323 320 320 322 319 319 318 318 319 318 318 317 314 314 315 314 313 313 313 314 314 313 315 312 311 313 311 310 310 311 311 311 312 308 311 312 311 309 310 312 312 311 311 312 312 312 313 313 313 314 317 321 325 328 330 331 331 332 333 334 334 334 335 335
326 326 328 329 330 331 331 330 330 328 330 329 327 325 325 325 325 325 324 323 324 322 320 323 320 320 321 320 318 318 318 316 316 314 314 314 313 313 315 313 313 315 314 315 311 313 312 312 314 311 311 311 313 312 311 313 313 313 311 311 312 311 311 312 311 312 312 313 313 312 313 315 318 322 325 327 330 330 331 331 332 333 335 335 335
324 326 327 329 329 330 331 331 330 329 328 329 326 325 325 326 325 325 324 324 323 322 321 322 321 320 319 319 318 317 316 316 315 314 315 314 314 313 313 312 315 314 315 315 314 311 312 311 309 308 309 311 313 313 312 312 314 314 312 313 311 310 311 312 311 312 312 312 312 313 312 313 314 317 320 323 327 328 329 330 331 332 332 333 335
325 327 327 326 328 329 331 331 330 328 328 328 327 326 326 326 325 325 325 324 323 322 321 322 322 322 319 318 318 318 316 317 315 316 315 314 313 312 312 313 315 313 312 312 312 310 309 309 310 307 310 313 314 315 314 312 312 314 313 313 310 310 310 310 310 311 311 312 312 312 312 312 312 313 314 317 321 326 327 329 330 330 330 330 331
324 324 325 325 328 330 331 331 329 328 328 328 327 326 325 325 325 325 324 324 323 322 322 321 322 321 321 319 318 318 317 316 315 313 313 314 312 311 312 313 312 311 311 310 311 310 310 308 312 311 313 314 314 315 314 313 314 312 310 310 309 309 309 309 310 310 310 311 312 311 312 312 312 312 313 314 316 319 323 326 328 329 330 331 331
321 322 323 325 325 328 330 331 328 328 327 327 325 326 325 325 324 324 324 324 323 323 322 321 320 321 321 320 319 318 317 317 315 315 312 312 312 312 310 312 311 311 312 312 313 312 311 313 313 314 315 315 314 314 312 311 311 311 311 310 309 310 309 309 309 309 310 310 310 311 311 312 312 312 312 312 311 315 319 323 325 326 327 329 330
322 322 323 324 325 327 328 330 328 328 328 327 326 326 325 324 324 322 324 323 323 323 322 322 321 319 320 321 319 318 318 319 319 318 317 316 316 316 314 312 312 313 315 316 315 316 316 315 315 314 314 315 314 313 310 310 310 310 310 309 309 308 308 309 309 309 310 309 309 310 311 311 311 311 311 312 312 311 315 316 319 322 324 326 327
322 322 322 322 323 325 327 329 328 328 328 328 327 325 325 324 323 323 324 323 323 323 322 323 324 321 320 319 318 320 320 321 322 323 324 322 321 320 319 318 316 317 318 318 317 317 317 317 316 315 313 313 312 312 311 310 310 311 311 309 310 310 309 309 309 309 309 308 309 310 310 310 310 309 310 310 311 311 312 314 317 319 320 321 323
322 322 323 324 324 325 326 328 328 329 329 328 327 326 326 325 324 324 320 323 322 323 323 324 327 327 323 320 319 321 323 324 325 324 322 322 321 322 321 322 322 320 318 318 318 317 317 317 316 315 313 312 310 310 310 312 313 313 312 312 312 310 310 309 309 307 308 308 309 309 310 309 309 309 310 310 310 310 311 312 313 314 313 315 318
323 323 323 324 324 325 325 325 327 328 328 328 326 327 327 327 327 326 324 323 320 320 321 324 327 328 327 326 324 324 324 326 325 324 325 320 320 322 322 320 320 319 317 314 313 314 313 313 313 314 310 309 310 310 311 313 313 313 313 314 313 311 310 309 308 308 308 308 308 308 308 308 308 308 309 309 309 309 309 310 310 311 311 313 317
322 322 322 323 323 324 325 325 325 328 327 326 326 326 326 326 326 325 325 325 325 323 325 326 327 327 329 328 327 326 323 324 325 324 322 322 322 323 322 319 317 315 316 317 316 313 313 313 312 309 311 312 312 312 313 311 312 312 310 311 310 310 310 310 309 308 308 307 308 307 307 307 307 307 308 308 308 307 307 308 307 309 309 310 313
321 321 322 322 323 324 323 324 325 326 326 326 325 326 325 324 326 327 327 326 326 327 327 328 328 328 326 326 327 327 326 324 323 324 324 322 323 323 321 318 315 317 318 319 317 315 311 311 310 310 313 315 317 316 310 310 310 312 311 309 310 310 309 308 309 309 308 308 307 307 306 305 306 306 307 307 305 306 306 306 307 307 308 308 309
318 320 321 322 323 323 324 325 324 325 326 327 326 326 326 327 325 326 326 326 326 326 327 327 329 328 327 326 324 325 325 325 323 324 324 324 324 323 321 321 319 320 319 318 314 312 312 311 312 315 316 316 314 313 313 313 310 306 310 312 313 311 311 309 308 307 307 308 308 305 306 305 305 306 307 306 306 305 305 305 305 305 306 306 307
320 320 321 321 321 322 323 324 324 325 326 326 326 326 325 322 324 318 326 319 323 326 328 327 328 329 328 327 324 325 326 325 325 323 324 324 323 322 321 320 316 318 315 315 315 317 316 316 316 316 317 314 314 315 315 314 312 312 312 308 307 309 308 301 295 300 306 307 304 304 305 304 305 305 306 305 305 306 306 305 305 305 305 306 306
318 318 319 320 321 321 323 323 324 324 325 325 324 325 324 320 319 319 321 323 321 316 323 322 325 326 326 325 323 323 323 325 325 325 325 324 322 322 322 319 322 321 320 319 319 319 317 317 316 315 315 315 313 312 311 312 313 311 307 306 308 306 304 296 305 312 310 304 302 305 303 306 305 305 304 304 306 305 305 305 304 305 305 306 306
318 319 319 321 322 321 322 323 324 324 325 321 322 321 320 316 315 314 314 316 316 316 320 321 322 323 322 322 325 324 324 325 326 326 322 322 322 324 323 322 321 321 320 319 319 319 318 318 317 316 315 314 314 312 311 311 312 313 311 307 305 303 302 306 308 309 307 309 309 308 307 303 304 304 303 304 304 304 304 304 304 305 305 305 305
317 319 320 321 321 321 320 321 322 322 324 322 322 322 322 322 319 321 320 316 319 314 318 319 317 319 323 323 324 324 325 324 325 326 326 324 325 324 324 323 322 320 320 320 319 318 319 318 318 317 315 315 314 313 311 311 311 310 310 311 310 307 306 307 306 302 306 310 310 310 308 308 307 305 302 303 304 304 303 304 304 304 304 304 304
316 317 316 318 319 320 319 320 321 321 322 321 321 320 321 321 322 322 322 321 322 317 313 313 318 314 314 318 319 321 322 323 319 321 323 322 323 322 322 322 321 320 317 318 318 318 317 316 315 314 314 313 313 311 311 312 309 307 308 310 309 308 308 305 303 304 301 305 308 308 309 308 307 307 306 306 305 304 305 305 305 304 304 304 304
313 309 313 313 316 318 318 319 320 319 320 320 320 322 322 320 319 318 317 318 319 319 314 313 309 311 316 317 319 319 320 320 320 319 319 319 318 316 315 314 315 316 314 315 316 314 312 312 312 314 314 314 313 312 311 311 309 309 309 309 306 305 305 304 304 304 301 298 301 305 306 307 306 306 306 306 306 306 306 306 305 305 305 304 305
301 306 309 311 313 314 315 316 318 318 319 319 320 320 321 321 321 319 316 315 315 313 310 311 313 314 315 314 317 317 316 315 315 314 314 314 313 312 310 312 314 314 313 316 315 314 312 308 308 310 309 308 308 310 311 310 310 309 309 308 307 305 305 304 304 304 302 299 299 301 300 302 302 302 303 302 304 305 305 306 306 305 305 304 304
296 297 299 301 306 310 312 314 316 317 318 318 319 319 320 318 319 317 317 312 311 311 314 314 314 315 314 313 313 314 312 311 310 310 310 310 310 310 310 310 310 308 308 311 310 309 307 307 307 305 307 308 309 310 309 307 309 309 309 308 306 306 304 302 301 304 303 302 298 297 298 296 294 295 298 300 298 299 303 304 304 305 305 305 305
296 296 297 300 302 308 311 313 314 315 315 317 317 318 318 318 319 318 317 313 311 313 313 312 312 312 313 311 310 308 308 308 307 306 306 307 306 305 304 302 302 302 303 303 303 303 303 303 303 303 303 302 301 302 302 302 302 304 306 306 305 304 302 301 301 301 300 297 296 296 295 295 294 293 294 296 298 299 300 301 301 302 303 303 304
Wind_Speed
3 5 3 5 5 7 8 8 7 8 10 9 8 9 10 11 12 12 13 13 13 13 13 14 15 16 15 14 14 14 14 14 14 14 16 16 16 15 14 14 14 14 14 15 14 14 15 16 18 18 18 19 18 17 17 16 16 17 18 17 17 17 17 17 18 16 15 15 15 15 14 14 15 15 15 16 17 16 14 15 12 9 7 12 17
6 3 3 3 5 9 10 9 9 9 9 9 8 9 10 11 11 12 13 14 13 13 14 14 15 14 15 14 13 14 14 14 13 14 16 15 14 14 15 15 15 14 13 13 14 13 14 16 16 17 17 18 17 17 15 15 16 16 16 17 16 16 16 16 16 16 16 15 15 15 15 15 15 14 17 17 16 15 13 13 14 8 5 16 17
5 4 2 2 4 8 8 10 9 9 10 10 9 9 10 10 12 12 12 14 13 13 14 13 12 14 15 13 13 13 13 13 14 15 15 15 15 15 15 16 16 16 15 14 14 13 14 15 16 16 17 18 17 16 16 16 15 15 15 16 16 17 16 16 15 14 15 15 15 15 16 16 16 15 16 17 17 16 13 14 14 14 9 18 15
7 3 2 2 4 6 9 9 9 11 10 9 9 10 11 11 12 12 12 13 13 14 13 12 14 14 14 14 13 14 14 13 13 14 15 15 15 15 15 14 15 15 15 15 15 15 15 16 16 16 17 17 17 17 16 15 15 15 15 15 16 16 16 15 15 14 13 12 12 11 6 5 8 16 16 17 17 15 13 16 17 17 17 15 16
6 3 3 3 3 6 6 7 11 11 10 10 10 11 12 12 12 12 12 13 14 13 13 12 11 15 14 14 13 13 12 13 14 14 15 15 14 14 14 13 14 14 15 15 14 14 15 15 15 16 16 17 18 16 15 14 14 15 15 15 15 15 14 14 14 13 13 12 11 7 6 6 5 12 15 15 14 12 12 14 14 14 14 16 15
5 3 3 4 4 4 4 10 11 11 11 11 12 12 12 12 12 12 12 13 13 13 12 12 11 13 13 12 13 13 13 13 14 15 15 14 14 14 13 13 14 14 14 14 14 14 14 15 15 15 16 17 17 17 15 14 14 14 15 14 14 14 13 13 13 12 11 10 9 5 5 5 4 5 15 15 13 11 13 14 13 13 13 13 13
6 3 4 4 3 3 3 10 12 11 11 12 13 13 13 12 11 11 12 12 12 12 13 12 11 11 13 15 14 12 11 12 12 12 13 14 14 14 13 13 13 14 14 14 14 13 13 14 14 14 16 17 17 17 15 14 13 14 14 14 13 13 13 12 12 11 10 7 5 5 5 6 4 3 13 12 13 13 13 13 13 13 12 12 13
4 4 4 3 2 3 5 8 11 12 12 12 12 13 13 13 12 12 12 11 12 12 11 11 10 11 14 12 11 13 12 13 14 15 16 15 12 13 13 13 13 13 13 13 13 13 13 13 13 13 15 16 16 17 16 13 13 14 14 13 13 12 12 12 11 10 10 5 5 5 5 4 5 4 11 11 12 11 12 12 12 12 12 11 9
4 3 3 3 2 6 5 8 10 12 12 13 13 13 13 12 12 12 11 11 10 10 11 12 10 10 12 12 12 12 12 12 12 13 13 13 13 13 12 12 13 12 12 13 13 12 12 12 12 13 14 15 16 16 16 15 13 13 13 13 12 11 11 10 10 9 6 4 4 4 4 4 4 3 9 11 11 12 12 10 9 10 10 9 9
4 3 3 3 3 5 6 9 10 10 12 13 13 13 13 12 12 12 11 11 10 11 11 11 11 11 12 11 12 12 12 12 12 12 13 12 11 11 11 13 11 12 13 12 12 12 11 10 11 11 13 15 15 15 16 16 14 13 12 11 11 10 10 10 10 6 4 4 4 4 3 5 3 3 8 11 11 12 9 7 6 5 5 8 9
4 3 3 3 3 5 7 9 9 10 12 12 12 13 13 12 12 12 12 12 11 11 12 11 10 10 10 12 12 11 12 12 13 12 12 12 12 12 12 12 13 12 11 12 12 12 11 10 10 11 12 14 14 14 15 15 14 13 12 10 10 10 10 9 7 4 4 4 4 4 4 6 3 2 9 10 10 12 8 9 9 8 9 9 9
4 3 3 2 4 6 8 8 9 9 11 12 12 12 12 12 12 12 12 11 10 11 11 11 10 10 11 11 12 11 12 13 12 12 13 13 12 12 12 12 11 11 11 11 11 11 11 11 10 10 11 12 13 13 14 15 14 13 11 11 10 10 9 8 5 5 4 4 4 3 4 4 3 4 9 9 9 9 7 7 7 8 8 9 8
4 3 3 2 3 6 8 8 8 10 12 12 13 13 12 11 12 12 12 11 10 9 10 12 11 9 9 12 11 10 11 12 12 12 12 12 10 10 10 10 11 11 10 10 10 11 11 10 9 10 10 12 12 12 13 14 14 13 11 10 10 9 8 7 4 4 4 3 3 3 4 3 3 7 8 8 8 8 7 7 8 9 8 8 7
6 3 3 3 2 5 8 8 8 8 10 10 12 13 13 13 12 12 12 11 11 9 10 10 9 9 7 10 11 12 11 11 12 12 12 11 10 10 10 10 11 10 9 9 9 9 10 9 9 9 10 11 12 12 12 12 14 13 12 10 9 8 6 5 4 3 3 3 3 3 3 2 1 8 7 7 7 6 5 6 6 7 7 6 7
7 5 3 3 3 3 7 8 8 9 10 11 11 13 14 13 13 12 12 12 11 10 10 9 10 10 9 9 10 9 9 9 10 10 10 12 12 11 10 10 9 9 10 9 9 9 9 9 8 8 10 11 11 11 11 12 12 13 12 11 9 7 6 3 3 2 3 2 2 3 3 4 3 8 6 6 7 6 5 7 8 7 6 7 7
6 5 3 3 3 3 3 6 8 9 9 11 10 10 12 12 11 12 11 11 11 11 10 9 9 9 6 11 11 10 10 10 9 11 11 11 11 10 10 9 9 9 8 8 8 8 9 8 8 9 9 10 10 11 10 11 11 11 11 10 9 7 6 3 3 2 1 1 2 1 3 3 7 6 5 5 5 5 5 5 4 5 6 7 7
6 4 4 3 3 3 3 3 6 10 10 10 10 10 9 9 11 11 10 9 10 10 10 9 9 8 10 10 11 10 11 11 11 9 10 10 10 10 10 9 9 8 8 8 8 8 8 8 8 8 9 9 10 10 9 9 9 9 8 8 7 6 6 4 3 2 1 1 1 2 4 3 6 4 5 4 3 4 2 3 3 4 4 5 5
6 5 5 4 3 2 3 3 4 6 5 8 9 10 9 9 10 9 8 8 8 9 9 9 8 8 8 9 8 8 9 9 10 11 12 12 10 9 9 8 8 8 7 7 7 7 7 7 7 7 7 8 8 8 8 8 8 8 7 7 7 7 6 4 2 2 1 2 3 2 3 5 8 7 7 4 2 2 3 7 5 3 4 4 4
6 5 6 5 3 2 3 3 3 4 5 4 4 6 9 9 10 9 8 7 9 8 7 8 7 6 7 8 8 9 9 9 9 8 9 9 8 7 8 8 7 7 7 6 6 6 6 6 6 6 6 7 7 7 8 8 7 7 7 7 6 6 6 4 3 2 2 2 2 3 4 6 8 7 5 3 4 5 5 3 3 2 2 2 4
5 6 7 5 4 3 2 3 3 4 4 4 4 4 7 9 10 9 8 8 9 8 7 7 7 7 7 8 8 7 6 6 8 5 7 7 6 5 5 6 7 6 6 5 5 5 5 6 5 5 6 6 7 7 7 7 7 8 8 7 6 4 3 2 2 3 3 3 2 3 5 7 7 7 6 4 6 4 3 3 0 2 2 2 3
5 6 4 6 5 4 3 3 3 4 4 4 4 4 4 7 7 9 9 8 8 7 6 7 6 6 6 6 6 4 4 3 4 3 5 4 5 6 5 6 6 5 4 5 5 5 5 5 4 5 5 5 6 6 6 7 7 7 8 6 6 4 1 1 2 3 2 3 2 3 6 6 7 7 8 11 11 2 1 4 4 4 4 3 4
6 6 5 5 5 4 3 3 4 4 4 4 3 4 4 5 4 4 4 5 6 6 5 3 4 3 5 4 3 3 3 3 3 4 3 2 3 4 5 5 5 4 4 4 4 4 4 3 4 4 5 6 7 3 4 5 7 7 8 6 4 3 4 2 1 3 3 3 3 4 7 6 7 8 9 9 6 4 5 4 5 5 5 6 8
7 6 6 7 5 4 3 5 4 4 4 4 3 4 4 4 3 3 3 4 4 4 3 3 3 3 2 3 2 2 2 1 2 2 2 2 2 2 3 3 4 3 3 3 3 2 2 2 3 4 6 5 3 3 3 4 4 5 4 4 3 4 4 3 3 3 3 3 3 6 7 8 8 9 10 10 11 11 10 9 7 6 6 7 7
8 7 6 5 6 5 5 4 5 5 5 4 4 3 4 3 4 3 4 3 3 3 3 3 3 3 3 3 2 2 2 1 1 3 3 1 1 1 1 3 3 3 3 3 4 4 5 5 5 5 4 2 2 2 3 3 4 3 3 2 3 3 3 3 4 4 4 3 4 7 7 9 10 10 11 11 11 11 10 5 7 8 9 10 8
7 7 6 7 8 6 5 5 5 5 5 5 5 4 4 3 3 4 4 4 4 3 3 3 3 3 3 3 2 2 2 1 1 1 1 1 1 0 1 1 1 1 4 1 2 2 3 3 3 3 2 2 3 3 3 5 4 4 4 3 3 3 3 3 3 3 4 4 4 7 8 9 11 12 13 13 13 13 12 6 8 9 11 12 11
5 7 8 7 8 7 6 5 5 6 5 5 6 5 5 4 4 4 4 3 4 4 3 3 3 4 3 3 2 2 1 1 1 0 0 0 1 1 0 1 1 0 2 1 1 2 2 2 3 4 4 2 2 3 3 3 4 5 4 4 4 4 4 4 3 3 4 4 4 7 8 8 11 13 14 14 15 16 16 11 9 12 13 13 14
7 8 7 6 7 6 6 6 7 6 6 5 5 6 5 5 4 4 4 4 3 4 4 4 4 3 3 3 3 2 2 2 2 1 3 1 2 1 2 0 1 1 1 1 2 2 2 2 3 4 4 4 4 4 3 3 3 4 5 5 4 5 4 4 4 4 4 3 4 7 8 8 10 12 14 15 16 16 16 16 15 15 15 16 16
7 8 7 7 7 8 7 6 7 7 6 5 5 5 5 5 5 4 4 5 4 5 5 5 4 4 3 4 4 4 5 5 4 3 4 2 3 2 1 1 1 2 0 0 2 3 4 3 3 5 5 5 4 5 5 4 5 3 4 5 5 6 5 5 5 5 5 5 4 6 7 8 7 10 13 15 16 17 17 18 18 18 19 18 18
9 9 8 7 8 8 7 8 7 7 6 6 5 5 4 4 4 5 5 5 5 5 5 4 4 4 3 4 4 4 3 4 4 4 2 4 2 2 2 2 1 3 1 1 1 3 3 3 3 3 4 5 4 5 4 4 3 3 3 5 5 5 5 6 5 5 5 6 6 6 9 9 8 10 12 14 15 17 18 18 18 18 19 20 20
10 9 8 8 7 7 9 10 9 9 7 6 6 5 5 6 5 6 6 5 5 6 4 4 5 4 4 4 5 5 5 5 5 3 4 4 3 2 2 3 3 2 1 3 3 2 5 3 3 3 5 5 5 4 3 5 5 4 3 4 6 5 5 5 6 6 6 6 6 6 9 9 9 10 12 13 15 17 17 18 19 19 20 20 20
9 9 8 8 7 8 9 9 9 8 7 7 7 7 6 6 6 6 5 6 6 5 4 5 3 3 4 4 4 4 4 4 4 4 3 3 2 2 3 2 3 4 3 4 2 4 3 4 4 3 4 4 5 4 3 5 5 5 4 4 5 5 6 6 5 6 6 6 6 6 7 9 10 10 11 13 15 16 18 18 19 20 21 22 22
9 10 9 8 8 10 10 9 9 9 8 8 7 7 7 7 6 5 6 6 5 5 5 5 4 4 3 3 3 4 3 4 3 3 3 3 3 3 2 2 5 4 4 5 4 3 3 3 3 3 3 3 4 4 3 3 5 5 5 6 5 5 6 6 6 6 6 6 6 6 6 7 10 11 11 12 14 15 16 18 19 20 20 21 22
8 10 10 8 10 10 10 10 9 8 9 9 8 7 7 6 6 6 6 6 5 5 5 5 5 5 3 3 3 3 3 4 5 4 4 3 3 2 2 3 4 3 2 3 3 2 2 3 4 2 3 2 3 5 2 2 4 6 5 6 5 6 6 5 6 6 6 6 6 6 7 7 7 10 12 12 13 15 16 17 18 19 20 21 22
9 6 7 9 8 6 7 7 8 9 10 8 7 7 7 7 6 6 6 6 5 5 6 5 5 5 5 4 4 3 4 3 4 3 3 3 2 2 3 3 3 2 1 1 3 2 3 3 5 3 4 4 4 5 4 5 6 6 5 5 5 6 6 6 6 6 6 6 6 6 7 6 7 6 7 10 12 12 15 16 18 18 19 21 22
6 6 9 9 8 7 7 6 8 9 9 8 8 8 7 7 6 6 6 6 6 6 5 5 5 5 5 5 4 4 3 4 3 4 2 3 2 1 2 4 2 2 3 3 3 3 3 5 3 3 4 4 4 5 4 6 6 7 6 6 7 6 5 6 6 6 7 6 6 6 7 7 7 6 7 7 8 12 12 15 17 17 19 20 21
8 8 7 7 8 7 7 8 8 9 9 9 8 8 7 6 6 5 5 5 6 6 5 5 5 4 5 5 4 4 3 3 4 4 4 3 3 1 2 2 2 1 2 0 0 3 3 3 3 3 4 5 5 6 5 5 5 6 7 6 7 6 6 6 7 7 6 6 7 7 7 7 7 6 7 6 6 8 12 13 14 16 18 19 20
7 7 8 7 8 8 9 9 10 11 10 9 7 6 6 5 5 5 6 5 6 6 5 5 4 4 4 4 4 4 4 4 4 3 3 3 3 2 2 2 1 1 3 2 3 3 3 3 4 3 3 5 5 7 6 5 6 7 7 7 8 7 6 7 7 6 6 7 7 7 7 7 6 6 6 6 7 6 9 12 12 14 16 17 18
8 9 9 10 10 9 9 10 9 10 10 9 8 7 6 6 5 5 4 5 5 5 5 5 5 4 3 3 3 3 3 4 4 4 4 2 1 2 3 3 3 3 1 0 4 2 3 3 5 5 5 4 5 4 6 6 5 6 6 8 8 6 7 7 6 6 6 8 7 7 7 6 6 6 6 7 7 7 7 10 13 14 14 13 15
7 9 8 8 8 9 8 9 9 9 8 7 7 6 5 5 5 5 4 4 3 3 3 4 4 4 5 4 4 4 3 3 4 5 4 4 3 4 4 3 1 1 1 2 3 3 3 3 4 6 2 2 4 5 6 6 6 6 7 9 7 7 7 6 6 7 7 6 7 7 6 6 5 6 7 7 6 6 7 7 7 7 8 12 14
7 7 8 8 9 8 8 8 8 9 7 6 6 6 5 6 6 3 4 4 4 3 3 4 3 4 4 7 6 4 4 5 4 4 3 5 5 5 6 5 2 1 1 3 4 4 5 4 4 3 6 4 5 6 5 4 5 6 8 9 7 7 8 7 6 7 6 6 6 5 6 5 5 6 7 6 6 6 7 7 7 7 7 9 13
7 8 9 9 10 11 9 10 8 7 8 8 7 7 7 5 5 7 7 5 5 4 4 4 4 4 3 3 3 5 6 6 6 5 6 5 4 3 2 1 1 2 4 5 4 5 3 2 2 2 4 6 5 4 2 2 4 7 5 6 6 5 7 7 7 6 5 6 6 5 5 5 6 6 6 6 5 6 6 7 7 7 7 7 8
8 8 11 12 11 10 11 11 8 9 9 10 9 8 7 7 6 6 4 4 4 4 4 3 5 4 3 3 3 2 2 3 4 3 5 5 5 3 3 4 4 4 4 5 4 3 3 2 2 4 3 4 4 2 2 1 3 3 7 9 8 5 6 4 5 4 5 6 5 3 5 4 6 6 6 6 6 6 7 7 7 7 7 7 7
10 11 10 9 10 11 10 9 9 10 9 9 8 9 5 4 5 4 6 2 1 3 4 4 5 5 4 4 3 3 4 4 3 4 3 3 3 3 6 6 3 2 3 4 4 5 3 4 3 3 5 2 3 3 3 3 3 3 5 4 4 7 3 3 1 3 5 5 3 4 5 4 7 6 5 6 6 7 6 6 7 7 8 8 8
8 8 9 11 10 10 9 9 10 9 9 9 9 6 6 5 4 4 5 5 4 2 1 0 1 1 3 3 2 3 3 4 3 4 5 4 5 6 5 3 3 3 3 3 3 4 3 3 3 2 2 5 2 3 1 2 3 3 4 1 5 2 7 1 8 9 5 3 3 5 4 6 6 6 5 6 7 7 7 7 7 7 8 8 7
10 11 10 11 9 12 11 11 10 10 8 8 8 6 5 4 4 4 4 4 3 2 1 2 1 1 1 1 4 3 4 4 4 4 3 2 2 2 2 2 2 1 1 2 2 3 2 2 1 1 1 2 3 2 2 0 1 1 2 3 4 1 2 6 9 6 3 10 10 6 5 4 5 6 5 6 6 7 7 7 8 7 8 8 7
11 11 10 11 10 9 8 8 7 7 9 8 8 7 8 8 6 6 5 3 4 3 4 4 3 2 3 1 1 2 3 3 2 2 3 1 0 1 1 1 1 2 1 1 1 3 5 4 4 1 1 0 1 3 2 2 2 2 2 1 1 4 7 5 5 6 2 7 8 7 8 7 7 6 4 6 7 7 6 7 6 8 8 8 7
11 9 8 8 9 8 8 9 8 7 7 7 8 8 7 7 9 9 8 8 7 3 2 2 4 3 1 2 1 0 2 2 2 2 4 4 6 4 4 4 3 4 4 3 4 3 4 3 2 3 3 4 3 0 3 3 2 2 1 1 2 2 3 5 5 7 11 0 1 5 7 8 8 9 8 7 7 7 7 7 7 7 7 7 7
9 6 7 6 8 9 8 9 8 8 7 7 8 9 9 7 7 6 6 6 7 7 6 4 2 3 4 4 3 3 4 3 5 5 3 2 5 5 3 3 3 3 2 2 4 3 3 2 2 3 4 4 2 3 1 3 3 2 3 3 3 3 3 2 3 6 7 12 10 4 4 5 7 7 8 8 9 9 11 9 8 8 7 7 7
4 7 7 7 6 5 6 6 7 7 7 9 10 9 8 9 8 7 6 5 5 4 3 3 5 4 6 3 5 5 5 5 5 4 3 5 5 5 3 3 4 3 2 4 4 3 3 3 3 4 3 2 2 2 2 2 2 3 4 3 4 4 4 4 3 4 7 10 11 6 11 7 4 7 6 4 8 8 8 9 11 10 8 8 7
4 3 3 4 5 5 6 7 7 7 7 8 9 9 8 8 8 7 8 6 4 4 4 6 5 5 6 5 5 5 4 5 5 5 6 5 5 5 5 5 5 4 4 3 3 4 4 4 4 4 4 4 3 3 3 2 3 3 4 4 4 4 4 2 2 6 4 3 8 14 11 12 14 5 7 8 4 5 8 9 9 10 9 8 9
2 2 4 4 5 6 6 7 8 6 6 8 9 9 8 8 8 8 9 8 6 7 6 5 4 4 6 4 5 4 4 5 4 4 5 5 6 5 5 4 3 4 5 4 4 3 3 4 4 4 4 4 3 4 4 4 4 5 5 4 4 4 4 4 6 5 5 5 9 9 11 9 9 16 3 1 7 8 8 8 7 7 8 8 8
Wind_Direction
149 141 174 160 162 151 136 133 133 122 105 103 108 110 104 102 100 98 99 99 99 100 96 89 86 84 83 83 83 82 81 81 79 79 77 73 74 70 73 77 77 73 74 72 73 79 81 80 79 79 78 75 73 69 68 67 67 70 73 74 73 71 68 66 64 63 64 71 74 74 75 76 78 78 75 72 69 66 64 63 60 57 48 57 58
147 159 164 179 176 138 139 135 131 128 123 109 109 112 110 106 104 104 103 102 98 96 91 90 91 91 88 84 85 87 85 85 88 83 76 77 75 78 78 76 77 78 76 76 78 82 86 83 82 80 77 75 73 70 71 72 73 73 72 72 72 72 70 66 64 62 60 64 71 74 76 75 74 79 82 76 72 70 66 66 65 59 51 56 52
120 130 168 180 150 134 138 136 135 134 120 107 110 112 113 111 108 108 105 102 100 95 93 95 95 89 86 84 83 82 87 86 80 78 80 82 80 79 79 77 75 76 78 80 80 83 84 84 82 76 76 74 72 72 76 79 79 76 74 73 74 74 73 72 70 64 59 56 56 58 62 72 78 74 74 77 72 66 63 63 64 61 60 59 55
121 134 129 117 105 127 136 136 131 120 115 112 115 114 112 111 108 107 104 104 104 96 93 88 89 92 89 86 82 83 82 80 88 85 78 78 78 76 76 77 82 83 82 82 83 87 90 87 85 80 76 71 67 67 76 85 86 82 79 78 77 77 76 75 72 67 61 55 55 54 38 24 57 69 68 65 64 61 56 56 55 56 56 59 56
116 115 99 80 89 99 110 123 126 122 119 121 118 116 114 109 106 106 109 106 100 99 96 93 92 95 93 90 92 90 89 88 80 84 84 78 77 78 79 82 80 80 83 82 81 87 91 88 86 81 73 66 62 70 77 86 90 87 83 81 79 76 75 73 71 68 64 58 52 48 47 42 29 69 75 70 67 65 62 60 57 54 51 53 54
118 114 103 98 92 104 131 138 123 120 119 119 118 117 111 109 107 105 102 100 100 101 97 93 94 93 92 97 91 84 87 91 93 91 89 84 82 83 83 79 80 82 82 83 86 88 95 91 86 81 72 63 62 66 75 82 90 90 89 89 85 80 78 79 75 69 64 58 50 45 40 35 34 51 64 66 65 62 63 62 60 55 54 54 52
117 114 103 100 106 119 120 127 120 121 120 116 114 114 112 107 108 106 99 97 98 97 100 98 91 93 96 90 88 88 87 87 87 84 82 83 83 78 74 73 77 80 80 82 85 90 94 95 87 80 73 63 62 66 74 85 95 96 96 92 86 83 78 73 69 65 60 54 45 41 40 39 36 23 59 58 59 59 58 58 57 55 53 50 47
97 103 109 108 111 119 104 108 122 120 116 113 114 113 111 109 104 100 102 106 108 105 104 101 99 103 103 98 97 97 97 91 86 84 84 83 78 81 82 89 88 86 87 86 86 88 95 95 89 77 71 64 59 61 67 83 98 102 99 93 91 89 85 80 71 64 58 53 45 44 41 37 36 33 62 61 61 56 54 52 51 50 47 48 46
106 108 110 115 128 124 122 126 122 112 110 111 113 115 112 111 111 103 103 98 95 99 103 103 101 101 98 101 104 100 101 96 89 89 85 88 95 96 92 84 74 80 87 87 90 92 96 102 92 79 72 63 58 57 64 76 91 102 99 97 97 95 90 80 70 60 53 50 46 44 42 35 32 41 63 62 57 58 59 55 46 45 44 44 49
110 102 108 115 131 129 122 125 123 113 112 112 112 116 117 113 107 108 106 105 104 104 104 106 107 102 99 107 103 104 99 96 96 93 94 93 91 90 94 98 98 90 82 84 86 86 91 97 100 84 72 62 56 56 58 69 82 91 96 98 93 85 78 69 60 49 47 42 41 30 44 53 27 30 67 65 59 59 54 58 62 63 71 50 45
117 116 110 115 138 127 120 126 124 119 116 115 117 120 119 114 113 110 109 108 110 113 110 108 115 118 111 105 106 108 106 101 100 98 94 91 87 85 83 85 85 87 88 86 91 96 97 100 105 92 73 64 57 58 59 61 72 86 90 91 84 76 71 67 61 50 44 50 50 38 39 43 29 29 65 67 64 65 47 46 39 41 44 48 44
117 117 119 138 139 126 114 107 114 119 115 115 115 115 121 119 116 113 111 113 119 118 119 119 111 103 108 111 105 100 98 100 101 101 94 89 87 85 83 86 88 87 88 87 84 85 85 90 94 88 77 64 59 59 60 61 65 72 80 80 78 75 70 65 63 54 49 43 47 39 30 17 14 45 58 61 58 52 49 48 48 45 38 39 36
127 127 132 128 120 126 116 113 108 115 125 121 119 124 124 118 116 118 116 114 114 115 115 113 110 107 112 111 101 105 107 108 107 104 102 98 91 87 92 90 89 89 87 89 89 86 89 94 97 89 74 63 58 58 60 62 63 67 71 75 77 74 66 61 59 55 51 44 38 30 37 28 21 51 49 55 52 53 56 46 45 45 43 34 30
138 140 134 127 135 123 117 114 108 94 102 119 121 120 123 119 113 116 115 114 116 118 113 108 109 120 121 117 119 103 102 115 116 113 109 107 103 98 90 86 85 85 88 87 82 83 83 84 87 83 68 62 58 56 57 59 62 61 64 67 67 69 62 60 58 61 52 40 31 13 15 352 344 64 55 55 46 33 27 57 54 47 39 33 27
142 142 136 126 125 120 115 108 103 104 105 115 121 124 124 123 122 118 119 119 118 116 113 112 125 130 133 122 122 120 109 108 117 108 108 110 108 101 97 92 90 92 93 89 90 90 85 78 79 72 61 60 58 56 54 53 56 59 58 59 59 55 54 58 52 50 46 30 7 9 349 348 3 46 37 42 41 40 28 27 43 44 24 26 34
136 133 125 119 117 117 113 112 105 105 106 105 116 125 125 125 125 124 122 122 121 120 118 116 103 71 94 113 100 96 89 86 105 116 114 110 107 104 102 99 102 97 93 90 83 78 79 78 70 58 55 55 56 55 52 50 50 51 52 52 49 46 56 62 52 28 21 11 346 341 345 338 2 11 50 58 57 69 51 46 39 32 23 21 9
139 128 126 126 122 126 118 106 110 105 104 108 108 106 104 109 121 123 120 115 122 124 122 116 112 100 82 93 95 91 81 82 89 109 114 109 103 100 101 101 104 104 99 97 88 90 88 79 68 58 52 51 53 53 50 47 43 44 46 46 44 45 54 61 49 15 346 327 334 335 334 335 323 5 354 44 73 58 70 359 83 51 28 15 15
143 141 140 140 138 130 114 114 110 102 105 105 106 107 107 107 109 107 109 118 120 120 112 107 100 89 83 89 92 88 85 81 84 87 86 87 92 93 92 89 91 93 95 88 93 86 80 75 65 57 50 45 47 49 46 39 38 34 34 38 44 38 39 47 45 8 340 324 328 317 319 315 333 325 4 67 42 3 359 27 91 60 31 1 12
142 147 150 147 149 134 127 115 104 104 104 99 98 107 111 114 116 115 111 106 108 111 105 105 101 86 88 95 91 86 82 80 78 79 85 86 86 89 99 101 102 101 99 95 93 91 83 72 63 52 42 38 33 34 28 25 24 25 26 28 27 48 32 27 15 348 331 313 301 309 300 318 320 320 5 355 347 322 342 16 23 40 349 348 343
147 150 163 161 143 146 144 123 115 112 107 105 103 101 111 118 124 122 118 112 114 118 116 110 102 100 100 100 96 88 82 81 82 74 90 92 94 99 102 104 108 109 106 105 100 93 79 69 55 44 31 27 23 19 14 10 13 10 14 14 5 35 50 1 350 333 314 289 293 301 297 307 318 329 334 305 299 309 327 311 125 304 252 295 329
163 167 162 168 161 162 160 139 134 119 116 112 104 98 100 110 118 126 127 125 126 127 118 108 102 97 98 99 96 95 99 94 80 85 75 79 93 94 93 98 105 103 105 108 96 87 75 60 47 31 24 27 24 13 3 2 359 7 1 356 352 356 72 19 332 309 308 264 276 282 283 299 300 317 318 333 346 335 290 283 290 304 330 295 308
172 180 181 170 171 181 171 150 137 130 122 117 111 115 109 100 110 120 126 131 130 124 123 122 108 99 100 91 94 104 103 102 102 95 90 72 61 93 104 111 108 106 106 107 96 76 74 52 35 14 16 32 18 13 352 345 345 352 345 347 349 337 336 358 325 317 321 293 262 256 271 280 286 296 316 324 336 306 275 274 273 279 299 302 311
176 178 187 185 190 182 174 159 150 145 131 124 126 130 131 126 123 125 128 136 143 138 140 123 123 127 118 112 107 101 102 110 128 125 117 64 101 145 125 114 117 109 106 103 101 95 36 47 10 16 21 12 10 355 344 336 330 338 339 342 329 320 326 339 342 326 300 281 285 271 270 274 274 283 307 312 311 310 301 283 248 260 265 294 294
175 175 176 178 178 190 183 170 162 158 146 142 142 145 146 145 143 140 143 149 150 158 150 138 146 150 154 146 136 125 104 83 15 127 113 97 104 201 85 94 102 107 88 49 14 15 13 13 25 16 360 14 5 341 343 326 320 323 318 325 311 318 325 316 319 315 303 291 278 282 283 279 275 285 298 302 303 301 308 286 238 250 266 280 272
173 164 172 185 185 184 175 175 171 164 157 155 157 167 165 162 157 156 158 165 171 169 169 160 168 170 174 168 159 143 128 95 64 56 83 108 94 36 33 38 48 61 42 25 356 351 5 353 349 5 7 343 348 329 340 327 325 334 330 321 337 329 319 321 317 313 304 297 283 282 288 286 280 287 296 300 303 303 304 248 250 253 278 281 281
151 175 187 183 187 181 181 172 173 174 173 168 174 170 170 171 173 177 166 179 178 180 181 182 186 194 183 177 137 128 134 138 122 297 285 56 160 255 322 2 18 41 31 2 345 349 346 348 350 330 350 360 332 314 310 295 306 322 319 325 330 324 323 314 314 301 290 296 290 290 289 285 285 286 292 296 301 304 305 302 265 276 281 285 285
176 190 184 186 182 181 184 172 177 177 180 178 173 173 185 185 176 175 173 194 187 183 197 198 201 188 185 171 163 176 175 184 190 227 248 236 228 243 263 334 300 314 328 330 309 326 334 336 339 325 329 343 328 320 312 304 294 305 310 314 312 312 311 302 296 286 279 274 277 282 281 282 284 283 285 290 293 296 297 296 292 285 280 276 277
184 188 186 183 185 188 181 175 181 179 183 179 179 188 187 182 181 176 195 192 181 202 204 205 197 186 184 189 186 180 182 189 206 206 234 214 236 236 243 288 288 271 244 206 304 311 315 320 326 319 326 326 323 315 320 317 313 298 302 307 310 309 304 295 295 294 293 287 275 278 275 277 272 275 282 286 290 291 293 294 293 295 297 295 292
190 192 189 185 192 185 176 184 183 185 184 175 184 190 187 188 178 186 196 189 198 208 208 196 203 193 185 184 172 176 186 193 196 217 192 221 243 233 221 241 267 268 266 281 243 278 296 298 302 299 311 305 312 303 312 307 295 291 314 305 303 303 298 298 294 295 296 289 287 281 280 280 275 276 278 281 284 287 288 289 289 291 292 294 296
195 190 186 196 190 180 181 189 187 187 183 173 191 184 190 191 193 193 193 180 205 212 200 203 211 185 193 186 189 179 182 186 203 206 190 226 230 232 226 245 241 264 218 256 241 239 259 276 276 274 281 288 296 292 330 308 309 308 317 304 298 295 293 293 300 296 291 291 282 281 281 278 275 275 275 276 279 282 283 285 287 288 289 289 288
184 192 194 196 189 182 191 190 191 187 178 186 187 194 187 197 196 196 183 194 202 198 206 215 204 203 200 188 190 192 182 187 193 195 212 226 237 227 237 236 259 253 219 246 219 224 241 248 257 269 279 287 283 281 294 298 299 306 303 297 288 308 297 293 290 287 290 287 287 282 283 281 274 271 272 274 277 279 281 283 285 286 287 288 288
186 195 195 191 187 193 192 191 190 188 184 191 189 193 194 198 198 192 194 200 192 190 201 212 212 213 205 191 190 197 187 196 190 189 198 216 232 232 253 221 240 243 220 233 238 226 235 250 254 247 245 250 276 284 269 276 294 291 299 291 296 293 282 285 287 287 284 284 282 285 282 278 278 272 270 271 273 275 277 280 282 285 286 286 288
200 193 192 187 194 195 193 193 188 187 191 193 192 198 195 194 195 200 199 194 191 188 199 207 209 212 196 198 197 188 188 190 202 199 199 211 219 227 249 246 259 268 243 243 253 239 248 269 272 255 267 251 288 293 295 266 275 278 280 278 290 283 281 287 280 282 280 280 283 282 280 279 278 281 276 271 271 274 276 278 279 281 283 284 285
190 197 186 195 197 197 194 188 189 189 196 196 192 194 198 198 197 199 199 191 189 188 203 208 206 204 196 197 198 191 188 180 168 189 193 200 204 211 237 260 257 243 214 206 235 235 245 268 263 304 289 315 296 288 306 301 287 283 282 291 296 280 292 291 277 275 277 276 275 277 276 279 279 277 280 279 274 273 275 275 277 278 280 283 286
183 189 193 197 192 195 188 192 189 195 194 198 195 200 197 195 194 196 199 195 189 190 197 201 202 203 192 202 195 192 192 181 168 145 146 146 155 173 212 233 229 211 213 204 206 217 219 241 268 287 291 279 271 278 281 275 279 298 299 303 288 287 288 275 282 282 278 279 283 276 277 277 278 278 274 277 280 277 272 276 281 282 282 283 284
193 192 192 187 196 197 191 192 188 195 198 199 199 198 196 195 192 193 192 196 187 188 187 192 194 187 192 198 194 191 179 178 176 156 147 165 152 175 229 233 235 201 227 159 188 261 258 270 248 213 259 273 280 290 270 277 303 296 291 293 286 287 284 285 283 282 281 287 278 279 279 277 277 275 279 282 283 285 281 284 283 282 282 284 285
192 190 191 188 194 196 194 193 190 196 198 201 199 198 190 193 192 188 194 190 189 192 190 187 177 172 185 192 186 185 176 177 180 172 142 151 149 169 235 227 210 202 223 182 217 236 244 252 268 260 257 276 280 276 290 296 288 283 288 293 287 290 287 280 280 281 292 281 280 282 283 281 281 284 287 285 286 284 292 289 283 284 285 285 286
199 195 194 191 194 191 194 198 195 195 194 195 194 192 192 189 188 189 186 193 203 199 196 179 183 171 161 174 166 172 184 183 178 170 147 165 173 207 245 223 193 194 198 127 247 221 215 216 254 252 229 235 273 290 289 288 282 288 292 282 281 281 273 279 281 282 278 282 286 283 284 291 298 292 290 286 286 293 293 292 291 289 287 285 287
203 201 198 198 195 193 191 199 194 193 195 192 191 191 187 189 180 178 188 202 208 223 208 198 197 176 175 172 165 165 190 203 197 191 191 196 221 246 250 277 290 187 179 214 242 236 237 227 234 269 290 231 250 257 259 274 290 286 283 279 286 278 279 276 275 276 275 272 279 286 303 291 300 291 288 287 287 292 291 290 292 294 292 292 292
202 200 201 197 199 196 193 195 197 191 188 186 180 186 182 188 185 186 210 214 204 199 217 215 206 204 202 171 171 172 188 205 225 238 217 219 224 233 236 226 211 158 227 275 274 254 240 247 259 254 284 285 233 250 263 284 281 282 278 282 271 277 280 270 271 267 279 282 280 292 286 299 294 288 284 281 288 285 282 283 286 283 288 289 288
199 197 199 202 199 196 186 200 195 184 181 184 186 184 188 196 204 193 201 188 195 197 206 210 206 209 214 239 226 205 197 201 214 213 223 228 232 244 249 278 194 190 204 233 241 255 253 239 263 225 256 276 290 261 259 220 297 297 272 262 286 261 260 272 267 278 280 280 283 282 287 302 288 286 282 290 289 282 279 283 282 286 286 285 284
205 194 201 203 200 195 194 196 183 188 193 191 186 190 193 191 182 186 165 164 178 192 211 206 205 207 210 189 190 212 242 236 229 220 224 210 221 222 224 240 221 222 224 230 248 264 263 256 237 288 215 246 272 273 266 58 305 264 317 319 303 284 261 250 276 289 285 279 275 282 285 284 285 284 288 300 295 291 288 284 285 287 285 284 282
197 197 204 200 200 199 201 192 189 188 195 192 185 196 189 184 175 165 161 163 218 195 200 194 186 196 211 194 188 209 207 221 220 218 212 204 214 222 234 235 231 226 262 278 256 269 250 255 244 240 291 254 261 294 270 172 266 306 293 293 304 335 333 342 337 289 271 272 307 294 282 279 278 278 287 301 292 292 290 283 285 287 286 285 286
198 198 197 200 202 206 202 195 194 193 191 193 193 190 174 166 150 145 157 146 181 180 161 33 166 177 228 233 210 209 207 212 216 211 212 206 212 221 245 267 254 220 228 283 314 292 294 277 271 273 259 301 327 312 5 207 209 352 339 345 303 323 320 314 331 317 312 276 248 272 271 277 280 289 300 290 288 292 286 285 287 285 284 284 286
201 199 196 197 198 204 203 197 194 195 194 188 185 161 134 124 96 63 78 76 51 72 133 237 190 198 255 185 224 202 214 222 223 230 216 252 332 321 300 271 247 194 171 218 260 301 315 296 330 346 219 226 305 310 309 157 260 191 245 333 326 339 224 310 333 294 1 340 318 307 296 283 280 280 286 285 287 285 284 290 285 286 284 284 285
206 206 198 200 197 201 199 198 196 193 193 189 176 164 171 165 156 156 164 167 190 166 193 207 231 219 215 236 206 189 211 227 227 205 201 148 87 25 52 85 103 72 78 136 105 74 49 33 11 333 321 268 220 303 298 323 283 270 247 260 286 305 328 323 342 305 344 276 273 299 319 316 307 311 293 288 292 289 285 282 281 284 286 286 283
213 201 196 199 198 195 191 191 194 196 190 177 171 169 174 180 182 185 185 188 196 207 192 212 200 218 166 139 159 193 187 167 103 100 97 99 93 84 75 83 85 94 87 82 78 73 76 67 48 73 74 57 58 8 326 313 332 69 206 234 294 284 302 329 320 310 313 345 244 333 315 308 323 326 321 310 303 303 292 282 289 283 282 283 284
205 183 196 196 196 195 187 191 192 190 185 172 173 179 180 180 180 186 185 185 191 196 191 192 147 146 129 120 107 73 70 65 88 73 69 117 102 86 78 83 92 70 98 122 100 87 92 76 63 65 69 66 92 94 30 1 47 313 345 342 337 306 319 271 266 298 300 309 306 273 231 322 327 306 303 311 314 311 308 306 300 296 288 281 281
171 188 196 198 197 193 189 187 191 186 185 177 177 184 182 178 179 175 182 199 180 173 144 131 132 139 119 120 108 94 72 60 54 77 82 64 65 82 75 73 73 70 90 72 71 90 90 79 52 55 65 63 63 87 75 27 26 10 355 353 351 357 338 325 330 10 324 313 305 325 317 309 278 277 290 269 280 289 299 303 306 303 298 296 292
221 215 208 187 194 188 189 186 196 189 184 180 180 182 179 170 175 179 179 170 136 120 143 141 141 145 125 123 104 91 87 73 52 48 60 55 64 61 66 65 61 51 58 75 79 69 56 57 51 54 44 53 24 44 67 43 37 27 38 15 360 342 338 346 9 343 309 271 304 318 319 325 323 295 296 277 266 299 286 283 288 294 302 305 308
191 181 193 183 182 187 189 193 198 185 180 182 178 180 175 175 177 177 175 164 159 147 137 132 129 129 130 121 109 99 81 81 76 63 63 67 67 62 76 77 74 76 65 59 53 78 88 85 70 57 58 62 41 53 50 43 45 43 37 32 21 15 6 329 328 342 338 318 320 305 311 312 307 310 263 259 306 278 268 272 269 275 282 289 294